User: anonymous   Login
Location: Unspecified
(0.0000°N, 0.0000°E)
Time: 08:25:33
(UTC+00:00)
Language:

Tiros 3 - Orbit

View from above orbital plane
View from above orbital plane
View from above satellite
View from above satellite

Ground track
Ground track

The orbit data is extracted from the following two-line orbital elements,

1   162U 61017A   18173.77668187 -.00000131 +00000-0 +92532-5 0  9996
2   162 047.9003 293.3425 0045421 268.6931 090.8758 14.44006065970196
Epoch (UTC): 22 June 2018 18:38:25
Eccentricity: 0.0045421
inclination: 47.9003°
perigee height: 713 km
apogee height: 777 km
right ascension of ascending node: 293.3425°
argument of perigee: 268.6931°
revolutions per day: 14.44006065
mean anomaly at epoch: 90.8758°
orbit number at epoch: 97019

The dashed part of the orbit path shows where the satellite is in the earth's shadow,  

DLR